{"data":{"norad_id":65036,"intl_designator":"2025-161X","name":"STARLINK-34770","alt_names":[],"object_type":"PAYLOAD","status":"ACTIVE","operator":null,"country":"US","launch_date":"2025-07-30","launch_site_code":"AFWTR","launch_vehicle":null,"mission":null,"orbit_class":"UNKNOWN","rcs_meters":null,"size_class":null,"mass_kg":null,"dimensions":null,"purposes":["comms"],"wikipedia_slug":null,"has_3d_model":false,"image_url":null,"decayed_at":null,"tle_current":{"epoch":"2026-09-19T22:30:01.365984Z","epoch_age_seconds":169506,"freshness":"FRESH","line1":"1 65036U 25161X   26262.93751581  .00011467  00000+0  34995-3 0  9993","line2":"2 65036  53.1582 110.2693 0001356 107.1608 252.9544 15.34404697 63997","mean_motion":15.34404697,"eccentricity":0.0001356,"inclination_deg":53.1582,"raan_deg":110.2693,"arg_perigee_deg":107.1608,"mean_anomaly_deg":252.9544,"bstar":0.00034995,"rev_number":6399,"period_min":93.847470801896,"perigee_km":461.76166372533,"apogee_km":463.61689581241,"semimajor_km":6840.8262797689,"source":"CELESTRAK","updated_at":"2026-09-21T09:00:35.495844Z"}}}